Location: Newark
(50.0306°N, 2.3272°E)
Time: 04:38:10
(UTC+00:00)

Vanguard 1 Rocket - Pass Details

Date: 15 December 2019
Orbit: 650 x 4226 km, 34.3° (Epoch: 20 January)

Event Time Altitude Azimuth Distance (km) Brightness Sun altitude
Rises 23:49:42 0° 266° (W) 6,652 11.8 -63.2°
Enters shadow 23:51:37 - 264° (W) 6,120 11.6 -63.2°
Reaches altitude 10° 23:55:45 10° 256° (WSW) 4,955 - -63.1°
Maximum altitude 00:05:07 25° 209° (SSW) 2,772 - -62.9°
Drops below altitude 10° 00:11:04 10° 156° (SSE) 3,019 - -62.7°
Sets 00:13:44 0° 142° (SE) 3,659 - -62.6°
